Weili Kongjian 01-06

operational
NORAD ID: 62581 Int'l Des: 2025-007 Owner: CENTI Country: CN
LEOCIRCULAR

About Weili Kongjian 01-06

Description loading...

Live Position

Loading 3D Globe...

Upcoming Passes

Altitude History

Altitude vs Time

uPlot chart will show altitude changes over time

Two-Line Element Set

1 62581U 25007G 25312.65160354 .00000199 00000-0 12273-3 0 9996
2 62581 54.9800 3.2770 0027937 66.1000 294.2904 14.36182666 43932
Epoch: Nov 8, 2025 • Age: 38 hours

Current Status

Altitude 784.2 km
Velocity 7.46 km/s
Sub-Earth Point -9.06°S, 54.97°E
Launch Date Jan 13, 2025
Age 0.8 years
Type other

Technical Details

Classification Payload
Mass 140.00 kg
Dry Mass 140.00 kg
Total Mass 140.00 kg
Length 1.00 m
Diameter 0.50 m
Span 2.00 m
Shape Box + 2 pan
Manufacturer DFHS
Bus Type WK01
Phase Status In Orbit
Owner/State CENTI/CN

Large Constellations

Loading constellations...